Terminal Aerodrome Forecast
Issued by NWS Pendleton, OR

Home | Current Version | Previous Version | Text Only | Print | Product List | Glossary On
Versions: 1 2 3 4 5 6 7 8 9 10 11 12 13 14 15 16 17 18
000
FTUS46 KPDT 281200 AAA
TAFPDT
TAF AMD
KPDT 281208Z 2812/2912 27020G30KT P6SM VCSH SCT120 OVC180
     FM281600 26015KT P6SM -SHRA SCT030 OVC060
     FM290000 28007KT P6SM -SHRA SCT025 OVC050
     FM290600 23006KT 5SM -SHSN BR SCT015 OVC020=

USA.gov is the U.S. government's official web portal to all federal, state and local government web resources and services.